Location: Newark
(40.8000°N, 14.5000°E)
Time: 07:00:43
(UTC+00:00)

OTV 5 (USA 277) - Pass Details

Date: 28 August 2019
Orbit: 295 x 339 km, 54.5° (Epoch: 08 September)

Event Time Altitude Azimuth Distance (km) Brightness Sun altitude
Rises 18:52:20 0° 272° (W) 2,004 ? -13.5°
Reaches altitude 10° 18:55:01 10° 303° (WNW) 1,173 ? -13.9°
Maximum altitude 18:56:18 13° 333° (NNW) 1,029 ? -14.1°
Drops below altitude 10° 18:57:37 10° 4° (N) 1,169 ? -14.4°
Sets 19:00:17 0° 35° (NE) 1,989 ? -14.8°
